sat.trackr.live / text

‹ back to catalog

STARLINK-11499 [DTC]

NORAD 62279 · 2024-237N

PAYLOAD ACTIVE UNKNOWN

§ Identity

Operator
Country
US
Launch date
2024-12-08
Launch site
AFETR
Launch vehicle
Mass (kg)
RCS (m²)

Purposes: comms

External: N2YO · Heavens-Above · Gunter

§ Orbital elements

Epoch: 2026-09-21T04:47:03.598944Z

Period
91.67 min
Inclination
43.0000°
Eccentricity
0.0001617
Mean motion
15.70860509 rev/d
Perigee alt
355.3 km
Apogee alt
357.5 km
Semi-major
6,734.6 km
B*
3.1479e-4
RAAN
318.7869°
Arg perigee
263.2367°
Mean anomaly
96.8316°
Rev number
10,372

§ Raw data

STARLINK-11499 [DTC]1 62279U 24237N   26264.19934721  .00040174  00000+0  31479-3 0  99922 62279  43.0000 318.7869 0001617 263.2367  96.8316 15.70860509103728

JSON: /api/v1/satellites/62279 · /tle

For live sub-satellite position, see the globe view (requires WebGL).

§ Visibility from observer

Set your observer location to see the next 7 days of passes ≥ 10°. The values pass through the URL so the page stays shareable.

No JS? Fill the form by hand. The geolocation button needs JavaScript.